Regional Weather Roundup
Issued by NWS

Home | Current Version | Previous Version | Graphics & Text | Print | Product List | Glossary On
Versions: 1 2 3 4 5 6 7 8 9 10 11 12 13 14 15 16 17 18 19 20 21 22 23 24 25 26 27 28 29 30 31 32 33 34 35 36 37 38 39 40 41 42 43 44 45 46 47 48 49 50
346
ASUS44 KLIX 190711
RWRLA
LOUISIANA WEATHER ROUNDUP
NATIONAL WEATHER SERVICE NEW ORLEANS LA
200 AM CDT SUN APR 19 2015

NOTE: "FAIR" INDICATES FEW OR NO CLOUDS BELOW 12,000 FEET WITH NO
      SIGNIFICANT WEATHER AND/OR OBSTRUCTIONS TO VISIBILITY.
      SKY/WX - SKY CONDITION AND SIGNIFICANT WEATHER.
      TMP - AIR TEMPERATURE.    DP   - DEWPOINT TEMPERATURE.
      RH  - RELATIVE HUMIDITY.  PRES - PRESSURE.
      HX  - HEAT INDEX.         WCI  - WIND CHILL INDEX.

*  THESE STATIONS ARE NOT NWS OR FAA STATIONS AND ARE NOT UNDER
   NWS QUALITY CONTROL.

LAZ040-048-061>063-065-066-069-190800-
SOUTHEAST LOUISIANA

CITY           SKY/WX    TMP DP  RH WIND       PRES   REMARKS
N.O. AUDUBON     N/A     73  70  91 MISG        N/A
N.O. INTL ARPT MOCLDY    72  68  87 S13       29.79S
N.O. LAKEFRONT MOCLDY    73  67  81 S13       29.79F
SLIDELL        CLOUDY    72  69  90 S8        29.79S
BATON ROUGE    MOCLDY    71  69  93 S9        29.80S
BOOTHVILLE     PTCLDY    73  71  93 S12       29.79F
BELLE CHASSE   MOCLDY    71  68  90 S7        29.79F
BOGALUSA*        N/A     72  67  87 SW5       29.81S
GALLIANO*      PTSUNNY   69  68  96 CALM      29.80F
NEW ROADS*     PTSUNNY   70  69  96 S6        29.80S
GONZALES*      CLOUDY    72  72 100 SW5       29.80F
HAMMOND*       CLOUDY    72  68  88 SW5       29.83R
HOUMA*         CLOUDY    72  71  95 S7        29.79F
PORT FOURCHON* NOT AVBL

$$

LAZ041-044-053-054-190800-
SOUTHWEST LOUISIANA

CITY           SKY/WX    TMP DP  RH WIND       PRES   REMARKS
LAKE CHARLES   PTCLDY    69  68  96 SW5       29.83R
LAFAYETTE      PTCLDY    71  69  93 SW6       29.81S
PATTERSON      MOCLDY    72  68  88 S7        29.82S
SALT POINT       N/A     71  70  96 VRB3      29.80S
NEW IBERIA     MOCLDY    71  69  93 SW6       29.81S
CHENAULT AIRPK MOCLDY    69  68  98 SW6       29.83S

$$

LAZ027-028-190800-
CENTRAL LOUISIANA

CITY           SKY/WX    TMP DP  RH WIND       PRES   REMARKS
FORT POLK      CLOUDY    70  69  96 SW10      29.78S FOG
ALEXANDRIA INT CLOUDY    68  68 100 S7        29.76F
ALEXANDRIA     CLOUDY    68  67  96 SW8       29.77R

$$

LAZ001-002-190800-
NORTHWEST LOUISIANA

CITY           SKY/WX    TMP DP  RH WIND       PRES   REMARKS
SHREVEPORT     TSTM      61  59  93 NW17      29.80S
BARKSDALE AFB  TSTM      61  61 100 NW8       29.82R
DTN SHREVEPORT TSTM      60  57  89 NW15      29.80S

$$

LAZ014-016-190800-
NORTHEAST LOUISIANA

CITY           SKY/WX    TMP DP  RH WIND       PRES   REMARKS
MONROE         CLOUDY    67  66  97 S3        29.75F
TALLULAH       CLOUDY    66  63  90 S5        29.76S

$$




USA.gov is the U.S. government's official web portal to all federal, state and local government web resources and services.